Time,TemperatureF,DewpointF,PressureIn,WindDirection,WindDirectionDegrees,WindSpeedMPH,WindSpeedGustMPH,Humidity,HourlyPrecipIn,Conditions,Clouds,dailyrainin,SoftwareType,DateUTC
2013-08-25 00:01:00,83.7,82.1,30.12,SE,135,3.1,6.5,95,0.00,,---,0.00,VWS V14.01,2013-08-25 05:01:00,
2013-08-25 00:06:00,83.5,81.9,30.15,ENE,68,2.9,2.9,95,0.00,,---,0.00,VWS V14.01,2013-08-25 05:06:00,
2013-08-25 00:11:00,83.5,81.9,30.15,SE,135,3.8,3.8,95,0.00,,---,0.00,VWS V14.01,2013-08-25 05:11:00,
2013-08-25 00:16:00,83.5,81.9,30.15,SE,135,2.9,3.8,95,0.00,,---,0.00,VWS V14.01,2013-08-25 05:16:00,
2013-08-25 00:21:00,83.5,81.9,30.12,SE,135,4.3,5.8,95,0.00,,---,0.00,VWS V14.01,2013-08-25 05:21:00,
2013-08-25 00:26:00,83.5,81.9,30.12,SE,135,3.8,4.3,95,0.00,,---,0.00,VWS V14.01,2013-08-25 05:26:00,
2013-08-25 00:31:00,83.5,81.9,30.12,ESE,112,4.9,5.8,95,0.00,,---,0.00,VWS V14.01,2013-08-25 05:31:00,
2013-08-25 00:36:00,83.7,82.1,30.15,SE,135,3.4,3.4,95,0.00,,---,0.00,VWS V14.01,2013-08-25 05:36:00,
2013-08-25 00:41:00,83.7,82.1,30.15,ESE,112,5.4,6.0,95,0.00,,---,0.00,VWS V14.01,2013-08-25 05:41:00,
2013-08-25 00:46:00,83.7,82.1,30.15,SE,135,4.3,4.7,95,0.00,,---,0.00,VWS V14.01,2013-08-25 05:46:00,
2013-08-25 00:51:00,83.5,81.9,30.12,East,90,2.9,8.1,95,0.00,,---,0.00,VWS V14.01,2013-08-25 05:51:00,
2013-08-25 00:56:00,83.3,81.7,30.12,ESE,112,4.0,5.4,95,0.00,,---,0.00,VWS V14.01,2013-08-25 05:56:00,
2013-08-25 01:01:00,83.3,81.7,30.12,SSE,158,4.9,5.8,95,0.00,,---,0.00,VWS V14.01,2013-08-25 06:01:00,
2013-08-25 01:06:00,83.1,81.5,30.15,East,90,3.4,4.7,95,0.00,,---,0.00,VWS V14.01,2013-08-25 06:06:00,
2013-08-25 01:11:00,83.1,81.5,30.15,SE,135,3.6,4.9,95,0.00,,---,0.00,VWS V14.01,2013-08-25 06:11:00,
2013-08-25 01:16:00,83.1,81.5,30.15,SSE,158,3.1,5.6,95,0.00,,---,0.00,VWS V14.01,2013-08-25 06:16:00,
2013-08-25 01:21:00,82.9,81.7,30.12,ESE,112,3.4,4.3,96,0.00,,---,0.00,VWS V14.01,2013-08-25 06:21:00,
2013-08-25 01:26:00,82.9,81.7,30.12,SE,135,4.3,6.0,96,0.00,,---,0.00,VWS V14.01,2013-08-25 06:26:00,
2013-08-25 01:31:00,82.8,81.5,30.12,ESE,112,3.1,3.8,96,0.00,,---,0.00,VWS V14.01,2013-08-25 06:31:00,
2013-08-25 01:35:00,82.8,81.5,30.15,SSE,158,3.8,4.7,96,0.00,,---,0.00,VWS V14.01,2013-08-25 06:35:00,
2013-08-25 01:40:00,82.8,81.5,30.15,ESE,112,5.6,5.6,96,0.00,,---,0.00,VWS V14.01,2013-08-25 06:40:00,
2013-08-25 01:45:00,82.8,81.5,30.15,ESE,112,3.8,6.3,96,0.00,,---,0.00,VWS V14.01,2013-08-25 06:45:00,
2013-08-25 01:50:00,82.8,81.5,30.15,SE,135,4.3,4.7,96,0.00,,---,0.00,VWS V14.01,2013-08-25 06:50:00,
2013-08-25 01:55:00,82.6,81.3,30.15,ESE,112,3.8,3.8,96,0.00,,---,0.00,VWS V14.01,2013-08-25 06:55:00,
2013-08-25 02:00:00,82.8,81.5,30.15,SE,135,6.3,7.4,96,0.00,,---,0.00,VWS V14.01,2013-08-25 07:00:00,
2013-08-25 02:05:00,82.6,81.3,30.15,SE,135,2.0,3.4,96,0.00,,---,0.00,VWS V14.01,2013-08-25 07:05:00,
2013-08-25 02:10:00,82.6,81.3,30.15,SSE,158,1.6,3.4,96,0.00,,---,0.00,VWS V14.01,2013-08-25 07:10:00,
2013-08-25 02:15:00,82.6,81.3,30.15,SE,135,2.9,4.9,96,0.00,,---,0.00,VWS V14.01,2013-08-25 07:15:00,
2013-08-25 02:20:00,82.4,81.2,30.15,SSE,158,2.9,3.6,96,0.00,,---,0.00,VWS V14.01,2013-08-25 07:20:00,
2013-08-25 02:25:00,82.4,81.2,30.15,SE,135,2.9,3.4,96,0.00,,---,0.00,VWS V14.01,2013-08-25 07:25:00,
2013-08-25 02:30:00,82.2,81.0,30.15,East,90,2.5,2.9,96,0.00,,---,0.00,VWS V14.01,2013-08-25 07:30:00,
2013-08-25 02:35:00,82.2,81.0,30.12,NE,45,3.1,3.1,96,0.00,,---,0.00,VWS V14.01,2013-08-25 07:35:00,
2013-08-25 02:40:00,82.2,81.0,30.12,SE,135,2.7,3.8,96,0.00,,---,0.00,VWS V14.01,2013-08-25 07:40:00,
2013-08-25 02:45:00,82.2,81.0,30.12,East,90,2.7,3.6,96,0.00,,---,0.00,VWS V14.01,2013-08-25 07:45:00,
2013-08-25 02:50:00,82.2,81.0,30.12,SE,135,2.9,4.0,96,0.00,,---,0.00,VWS V14.01,2013-08-25 07:50:00,
2013-08-25 02:55:00,82.0,80.8,30.12,East,90,2.9,3.6,96,0.00,,---,0.00,VWS V14.01,2013-08-25 07:55:00,
2013-08-25 03:00:00,82.0,80.8,30.12,East,90,3.1,3.8,96,0.00,,---,0.00,VWS V14.01,2013-08-25 08:00:00,
2013-08-25 03:05:00,82.0,80.8,30.12,SE,135,2.5,4.3,96,0.00,,---,0.00,VWS V14.01,2013-08-25 08:05:00,
2013-08-25 03:10:00,82.0,80.8,30.12,ENE,68,2.9,2.9,96,0.00,,---,0.00,VWS V14.01,2013-08-25 08:10:00,
2013-08-25 03:15:00,82.0,80.8,30.12,ESE,112,2.7,2.7,96,0.00,,---,0.00,VWS V14.01,2013-08-25 08:15:00,
2013-08-25 03:20:00,82.0,80.8,30.12,ESE,112,4.3,4.5,96,0.00,,---,0.00,VWS V14.01,2013-08-25 08:20:00,
2013-08-25 03:25:00,82.0,80.8,30.12,SSE,158,3.6,3.6,96,0.00,,---,0.00,VWS V14.01,2013-08-25 08:25:00,
2013-08-25 03:30:00,82.0,80.8,30.12,ESE,112,2.5,4.0,96,0.00,,---,0.00,VWS V14.01,2013-08-25 08:30:00,
2013-08-25 03:35:00,82.2,81.0,30.09,ESE,112,3.8,5.4,96,0.00,,---,0.00,VWS V14.01,2013-08-25 08:35:00,
2013-08-25 03:40:00,82.4,81.2,30.09,SE,135,2.7,4.0,96,0.00,,---,0.00,VWS V14.01,2013-08-25 08:40:00,
2013-08-25 03:45:00,82.4,81.2,30.09,ESE,112,3.6,3.8,96,0.00,,---,0.00,VWS V14.01,2013-08-25 08:45:00,
2013-08-25 03:50:00,82.6,81.3,30.09,ESE,112,4.9,4.9,96,0.00,,---,0.00,VWS V14.01,2013-08-25 08:50:00,
2013-08-25 03:55:00,82.4,81.2,30.09,ESE,112,5.6,5.6,96,0.00,,---,0.00,VWS V14.01,2013-08-25 08:55:00,
2013-08-25 04:00:00,82.6,81.3,30.09,ESE,112,2.9,5.6,96,0.00,,---,0.00,VWS V14.01,2013-08-25 09:00:00,
2013-08-25 04:05:00,82.6,81.3,30.09,SSE,158,4.3,4.3,96,0.00,,---,0.00,VWS V14.01,2013-08-25 09:05:00,
2013-08-25 04:10:00,82.6,81.3,30.09,SE,135,4.7,4.7,96,0.00,,---,0.00,VWS V14.01,2013-08-25 09:10:00,
2013-08-25 04:15:00,82.6,81.3,30.09,SSE,158,3.4,3.6,96,0.00,,---,0.00,VWS V14.01,2013-08-25 09:15:00,
2013-08-25 04:20:00,82.6,81.3,30.09,SE,135,2.9,3.6,96,0.00,,---,0.00,VWS V14.01,2013-08-25 09:20:00,
2013-08-25 04:25:00,82.6,81.3,30.09,East,90,7.6,7.6,96,0.00,,---,0.00,VWS V14.01,2013-08-25 09:25:00,
2013-08-25 04:30:00,82.6,81.3,30.09,ESE,112,2.9,3.8,96,0.00,,---,0.00,VWS V14.01,2013-08-25 09:30:00,
2013-08-25 04:35:00,82.4,81.2,30.12,ESE,112,4.0,5.8,96,0.00,,---,0.00,VWS V14.01,2013-08-25 09:35:00,
2013-08-25 04:40:00,82.4,81.2,30.12,East,90,3.1,4.3,96,0.00,,---,0.00,VWS V14.01,2013-08-25 09:40:00,
2013-08-25 04:45:00,82.4,81.2,30.12,SSE,158,2.9,5.4,96,0.00,,---,0.00,VWS V14.01,2013-08-25 09:45:00,
2013-08-25 04:50:00,82.4,81.2,30.12,East,90,4.9,4.9,96,0.00,,---,0.00,VWS V14.01,2013-08-25 09:50:00,
2013-08-25 04:55:00,82.4,81.2,30.12,SE,135,3.6,4.0,96,0.00,,---,0.00,VWS V14.01,2013-08-25 09:55:00,
2013-08-25 05:00:00,82.4,81.2,30.12,SE,135,2.7,3.4,96,0.00,,---,0.00,VWS V14.01,2013-08-25 10:00:00,
2013-08-25 05:05:00,82.6,81.3,30.12,SE,135,3.1,3.6,96,0.00,,---,0.00,VWS V14.01,2013-08-25 10:05:00,
2013-08-25 05:10:00,82.4,80.8,30.12,ESE,112,2.0,4.9,95,0.00,,---,0.00,VWS V14.01,2013-08-25 10:10:00,
2013-08-25 05:15:00,82.4,80.8,30.12,ESE,112,2.5,6.0,95,0.00,,---,0.00,VWS V14.01,2013-08-25 10:15:00,
2013-08-25 05:20:00,82.4,80.8,30.12,ESE,112,2.2,2.5,95,0.00,,---,0.00,VWS V14.01,2013-08-25 10:20:00,
2013-08-25 05:25:00,82.2,81.0,30.12,East,90,3.1,3.4,96,0.00,,---,0.00,VWS V14.01,2013-08-25 10:25:00,
2013-08-25 05:30:00,82.2,81.0,30.12,ESE,112,2.7,3.1,96,0.00,,---,0.00,VWS V14.01,2013-08-25 10:30:00,
2013-08-25 05:35:00,82.2,81.0,30.12,SE,135,2.7,3.4,96,0.00,,---,0.00,VWS V14.01,2013-08-25 10:35:00,
2013-08-25 05:40:00,82.0,80.8,30.12,SE,135,2.7,3.1,96,0.00,,---,0.00,VWS V14.01,2013-08-25 10:40:00,
2013-08-25 05:45:00,82.0,80.8,30.12,ESE,112,2.9,4.7,96,0.00,,---,0.00,VWS V14.01,2013-08-25 10:45:00,
2013-08-25 05:50:00,82.0,80.8,30.15,ESE,112,3.4,3.4,96,0.00,,---,0.00,VWS V14.01,2013-08-25 10:50:00,
2013-08-25 05:55:00,82.0,80.8,30.15,East,90,2.9,4.0,96,0.00,,---,0.00,VWS V14.01,2013-08-25 10:55:00,
2013-08-25 06:00:00,82.2,81.0,30.15,East,90,2.9,2.9,96,0.00,,---,0.00,VWS V14.01,2013-08-25 11:00:00,
2013-08-25 06:05:00,82.2,81.0,30.15,ESE,112,4.5,4.5,96,0.00,,---,0.00,VWS V14.01,2013-08-25 11:05:00,
2013-08-25 06:10:00,82.2,81.0,30.15,East,90,3.1,3.1,96,0.00,,---,0.00,VWS V14.01,2013-08-25 11:10:00,
2013-08-25 06:15:00,82.2,81.0,30.15,SE,135,1.6,3.1,96,0.00,,---,0.00,VWS V14.01,2013-08-25 11:15:00,
2013-08-25 06:20:00,82.4,81.2,30.15,NE,45,2.0,2.0,96,0.00,,---,0.00,VWS V14.01,2013-08-25 11:20:00,
2013-08-25 06:25:00,82.6,81.3,30.15,SE,135,1.3,2.9,96,0.00,,---,0.00,VWS V14.01,2013-08-25 11:25:00,
2013-08-25 06:30:00,82.6,81.3,30.15,East,90,2.7,3.4,96,0.00,,---,0.00,VWS V14.01,2013-08-25 11:30:00,
2013-08-25 06:35:00,82.6,81.3,30.12,ESE,112,0.0,2.5,96,0.00,,---,0.00,VWS V14.01,2013-08-25 11:35:00,
2013-08-25 06:40:00,82.6,81.3,30.12,East,90,0.0,2.0,96,0.00,,---,0.00,VWS V14.01,2013-08-25 11:40:00,
2013-08-25 06:45:00,82.6,81.3,30.12,SE,135,3.1,3.4,96,0.00,,---,0.00,VWS V14.01,2013-08-25 11:45:00,
2013-08-25 06:50:00,82.9,81.7,30.12,ESE,112,2.0,2.5,96,0.00,,---,0.00,VWS V14.01,2013-08-25 11:50:00,
2013-08-25 06:55:00,83.5,82.2,30.12,SE,135,2.7,3.8,96,0.00,,---,0.00,VWS V14.01,2013-08-25 11:55:00,
2013-08-25 07:00:00,85.1,83.5,30.12,South,180,1.6,2.5,95,0.00,,---,0.00,VWS V14.01,2013-08-25 12:00:00,
2013-08-25 07:05:00,85.8,84.2,30.12,ENE,68,1.1,2.0,95,0.00,,---,0.00,VWS V14.01,2013-08-25 12:05:00,
2013-08-25 07:10:00,86.2,84.6,30.12,SE,135,0.9,2.7,95,0.00,,---,0.00,VWS V14.01,2013-08-25 12:10:00,
2013-08-25 07:15:00,86.9,85.3,30.12,SE,135,1.1,1.3,95,0.00,,---,0.00,VWS V14.01,2013-08-25 12:15:00,
2013-08-25 07:20:00,87.4,85.5,30.15,SE,135,3.6,3.8,94,0.00,,---,0.00,VWS V14.01,2013-08-25 12:20:00,
2013-08-25 07:25:00,87.8,85.9,30.15,SE,135,2.0,2.7,94,0.00,,---,0.00,VWS V14.01,2013-08-25 12:25:00,
2013-08-25 07:30:00,88.2,86.2,30.15,East,90,3.6,3.6,94,0.00,,---,0.00,VWS V14.01,2013-08-25 12:30:00,
2013-08-25 07:35:00,87.4,85.2,30.15,ESE,112,2.5,2.9,93,0.00,,---,0.00,VWS V14.01,2013-08-25 12:35:00,
2013-08-25 07:40:00,87.1,84.8,30.15,NNE,22,2.7,4.0,93,0.00,,---,0.00,VWS V14.01,2013-08-25 12:40:00,
2013-08-25 07:45:00,87.1,84.8,30.15,East,90,4.0,4.0,93,0.00,,---,0.00,VWS V14.01,2013-08-25 12:45:00,
2013-08-25 07:50:00,87.3,85.0,30.18,NE,45,2.9,3.8,93,0.00,,---,0.00,VWS V14.01,2013-08-25 12:50:00,
2013-08-25 07:55:00,88.0,85.4,30.18,ESE,112,2.2,2.7,92,0.00,,---,0.00,VWS V14.01,2013-08-25 12:55:00,
2013-08-25 08:00:00,88.3,85.7,30.18,SE,135,3.4,3.4,92,0.00,,---,0.00,VWS V14.01,2013-08-25 13:00:00,
2013-08-25 08:05:00,89.2,86.6,30.15,ESE,112,2.0,3.6,92,0.00,,---,0.00,VWS V14.01,2013-08-25 13:05:00,
2013-08-25 08:10:00,90.0,87.0,30.15,East,90,2.5,2.7,91,0.00,,---,0.00,VWS V14.01,2013-08-25 13:10:00,
2013-08-25 08:15:00,90.1,86.8,30.15,ESE,112,1.3,3.1,90,0.00,,---,0.00,VWS V14.01,2013-08-25 13:15:00,
2013-08-25 08:20:00,90.9,87.5,30.18,NE,45,2.9,3.8,90,0.00,,---,0.00,VWS V14.01,2013-08-25 13:20:00,
2013-08-25 08:25:00,91.4,87.7,30.18,ENE,68,4.0,4.9,89,0.00,,---,0.00,VWS V14.01,2013-08-25 13:25:00,
2013-08-25 08:30:00,91.8,87.7,30.18,SE,135,2.7,2.7,88,0.00,,---,0.00,VWS V14.01,2013-08-25 13:30:00,
2013-08-25 08:35:00,92.1,88.1,30.18,ENE,68,2.7,3.1,88,0.00,,---,0.00,VWS V14.01,2013-08-25 13:35:00,
2013-08-25 08:40:00,92.3,87.9,30.18,NNE,22,2.5,2.5,87,0.00,,---,0.00,VWS V14.01,2013-08-25 13:40:00,
2013-08-25 08:45:00,92.8,88.4,30.18,SE,135,2.5,2.9,87,0.00,,---,0.00,VWS V14.01,2013-08-25 13:45:00,
2013-08-25 08:50:00,93.0,88.2,30.18,ESE,112,4.0,4.0,86,0.00,,---,0.00,VWS V14.01,2013-08-25 13:50:00,
2013-08-25 08:55:00,92.5,87.7,30.18,East,90,3.4,3.4,86,0.00,,---,0.00,VWS V14.01,2013-08-25 13:55:00,
2013-08-25 09:00:00,92.3,87.1,30.18,ENE,68,2.0,4.0,85,0.00,,---,0.00,VWS V14.01,2013-08-25 14:00:00,
2013-08-25 09:05:00,92.5,87.7,30.18,North,0,4.5,4.5,86,0.00,,---,0.00,VWS V14.01,2013-08-25 14:05:00,
2013-08-25 09:10:00,92.8,88.0,30.18,ENE,68,2.0,2.5,86,0.00,,---,0.00,VWS V14.01,2013-08-25 14:10:00,
2013-08-25 09:15:00,93.7,88.6,30.18,East,90,4.5,4.5,85,0.00,,---,0.00,VWS V14.01,2013-08-25 14:15:00,
2013-08-25 09:20:00,92.8,87.7,30.18,ENE,68,2.5,2.9,85,0.00,,---,0.00,VWS V14.01,2013-08-25 14:20:00,
2013-08-25 09:25:00,92.8,87.3,30.18,East,90,4.3,4.7,84,0.00,,---,0.00,VWS V14.01,2013-08-25 14:25:00,
2013-08-25 09:30:00,92.8,87.7,30.18,ESE,112,6.3,6.3,85,0.00,,---,0.00,VWS V14.01,2013-08-25 14:30:00,
2013-08-25 09:35:00,93.7,88.2,30.18,SE,135,3.8,8.7,84,0.00,,---,0.00,VWS V14.01,2013-08-25 14:35:00,
2013-08-25 09:40:00,93.0,87.5,30.18,NNE,22,4.3,4.9,84,0.00,,---,0.00,VWS V14.01,2013-08-25 14:40:00,
2013-08-25 09:45:00,93.2,87.7,30.18,NNE,22,0.9,4.3,84,0.00,,---,0.00,VWS V14.01,2013-08-25 14:45:00,
2013-08-25 09:50:00,92.5,87.3,30.18,NNE,22,7.4,7.4,85,0.00,,---,0.00,VWS V14.01,2013-08-25 14:50:00,
2013-08-25 09:55:00,92.5,87.3,30.18,NNE,22,5.4,5.4,85,0.00,,---,0.00,VWS V14.01,2013-08-25 14:55:00,
2013-08-25 10:00:00,92.8,87.7,30.18,NE,45,4.0,4.0,85,0.00,,---,0.00,VWS V14.01,2013-08-25 15:00:00,
2013-08-25 10:05:00,92.8,87.3,30.18,NNE,22,4.9,5.4,84,0.00,,---,0.00,VWS V14.01,2013-08-25 15:05:00,
2013-08-25 10:10:00,93.0,87.5,30.18,NNE,22,4.0,4.0,84,0.00,,---,0.00,VWS V14.01,2013-08-25 15:10:00,
2013-08-25 10:15:00,93.2,87.7,30.18,NNE,22,4.0,4.0,84,0.00,,---,0.00,VWS V14.01,2013-08-25 15:15:00,
2013-08-25 10:20:00,93.4,87.4,30.18,NE,45,4.7,5.8,83,0.00,,---,0.00,VWS V14.01,2013-08-25 15:20:00,
2013-08-25 10:25:00,93.0,87.1,30.18,NNE,22,4.3,4.9,83,0.00,,---,0.00,VWS V14.01,2013-08-25 15:25:00,
2013-08-25 10:30:00,92.8,87.7,30.18,NW,315,4.7,4.7,85,0.00,,---,0.00,VWS V14.01,2013-08-25 15:30:00,
2013-08-25 10:35:00,93.4,87.8,30.18,NNE,22,7.4,7.4,84,0.00,,---,0.00,VWS V14.01,2013-08-25 15:35:00,
2013-08-25 10:40:00,93.0,87.8,30.18,NE,45,5.8,6.5,85,0.00,,---,0.00,VWS V14.01,2013-08-25 15:40:00,
2013-08-25 10:45:00,93.6,88.0,30.18,North,0,2.7,4.9,84,0.00,,---,0.00,VWS V14.01,2013-08-25 15:45:00,
2013-08-25 10:50:00,93.7,88.2,30.18,NE,45,4.0,4.9,84,0.00,,---,0.00,VWS V14.01,2013-08-25 15:50:00,
2013-08-25 10:55:00,94.3,88.3,30.18,NNE,22,3.4,3.4,83,0.00,,---,0.00,VWS V14.01,2013-08-25 15:55:00,
2013-08-25 11:00:00,93.6,87.2,30.18,NNE,22,6.0,6.5,82,0.00,,---,0.00,VWS V14.01,2013-08-25 16:00:00,
2013-08-25 11:05:00,93.9,87.6,30.18,NE,45,3.4,3.4,82,0.00,,---,0.00,VWS V14.01,2013-08-25 16:05:00,
2013-08-25 11:10:00,93.6,87.2,30.18,NE,45,5.4,7.4,82,0.00,,---,0.00,VWS V14.01,2013-08-25 16:10:00,
2013-08-25 11:15:00,93.7,87.8,30.18,NNE,22,3.1,5.4,83,0.00,,---,0.00,VWS V14.01,2013-08-25 16:15:00,
2013-08-25 11:20:00,94.1,87.8,30.18,North,0,5.4,6.5,82,0.00,,---,0.00,VWS V14.01,2013-08-25 16:20:00,
2013-08-25 11:25:00,94.5,88.5,30.18,NNE,22,6.3,6.3,83,0.00,,---,0.00,VWS V14.01,2013-08-25 16:25:00,
2013-08-25 11:30:00,94.1,88.2,30.18,NNE,22,7.4,7.4,83,0.00,,---,0.00,VWS V14.01,2013-08-25 16:30:00,
2013-08-25 11:35:00,95.4,89.4,30.15,NNE,22,2.7,3.1,83,0.00,,---,0.00,VWS V14.01,2013-08-25 16:35:00,
2013-08-25 11:40:00,94.3,88.3,30.15,NE,45,6.0,6.5,83,0.00,,---,0.00,VWS V14.01,2013-08-25 16:40:00,
2013-08-25 11:45:00,93.9,87.6,30.15,NNE,22,7.6,7.6,82,0.00,,---,0.00,VWS V14.01,2013-08-25 16:45:00,
2013-08-25 11:50:00,93.9,88.3,30.15,NE,45,7.6,7.6,84,0.00,,---,0.00,VWS V14.01,2013-08-25 16:50:00,
2013-08-25 11:55:00,94.8,88.8,30.15,NNE,22,6.3,6.3,83,0.00,,---,0.00,VWS V14.01,2013-08-25 16:55:00,
2013-08-25 12:00:00,94.1,88.5,30.15,North,0,5.8,5.8,84,0.00,,---,0.00,VWS V14.01,2013-08-25 17:00:00,
2013-08-25 12:05:00,94.1,88.5,30.15,NNE,22,6.3,6.3,84,0.00,,---,0.00,VWS V14.01,2013-08-25 17:05:00,
2013-08-25 12:10:00,94.1,88.5,30.15,NNE,22,5.6,7.4,84,0.00,,---,0.00,VWS V14.01,2013-08-25 17:10:00,
2013-08-25 12:15:00,94.3,89.1,30.15,North,0,6.3,7.4,85,0.00,,---,0.00,VWS V14.01,2013-08-25 17:15:00,
2013-08-25 12:20:00,94.3,89.1,30.15,NNE,22,6.5,7.8,85,0.00,,---,0.00,VWS V14.01,2013-08-25 17:20:00,
2013-08-25 12:25:00,94.3,89.1,30.15,NNE,22,7.2,7.6,85,0.00,,---,0.00,VWS V14.01,2013-08-25 17:25:00,
2013-08-25 12:30:00,94.3,88.7,30.15,NNE,22,6.0,7.2,84,0.00,,---,0.00,VWS V14.01,2013-08-25 17:30:00,
2013-08-25 12:35:00,94.5,88.9,30.12,NNE,22,6.5,6.5,84,0.00,,---,0.00,VWS V14.01,2013-08-25 17:35:00,
2013-08-25 12:40:00,94.5,88.9,30.12,NE,45,6.3,6.3,84,0.00,,---,0.00,VWS V14.01,2013-08-25 17:40:00,
2013-08-25 12:45:00,94.3,88.7,30.12,NE,45,4.9,4.9,84,0.00,,---,0.00,VWS V14.01,2013-08-25 17:45:00,
2013-08-25 12:50:00,94.6,89.1,30.15,NE,45,8.5,8.5,84,0.00,,---,0.00,VWS V14.01,2013-08-25 17:50:00,
2013-08-25 12:55:00,94.3,88.7,30.15,NE,45,5.8,5.8,84,0.00,,---,0.00,VWS V14.01,2013-08-25 17:55:00,
2013-08-25 13:00:00,94.3,88.7,30.15,ENE,68,6.7,7.6,84,0.00,,---,0.00,VWS V14.01,2013-08-25 18:00:00,
2013-08-25 13:05:00,94.6,89.4,30.12,NNE,22,5.8,5.8,85,0.00,,---,0.00,VWS V14.01,2013-08-25 18:05:00,
2013-08-25 13:10:00,94.6,89.1,30.12,NE,45,5.6,5.6,84,0.00,,---,0.00,VWS V14.01,2013-08-25 18:10:00,
2013-08-25 13:15:00,94.8,89.2,30.12,NE,45,4.0,4.0,84,0.00,,---,0.00,VWS V14.01,2013-08-25 18:15:00,
2013-08-25 13:20:00,94.8,89.2,30.15,NNE,22,5.4,5.4,84,0.00,,---,0.00,VWS V14.01,2013-08-25 18:20:00,
2013-08-25 13:25:00,94.8,89.2,30.15,NNE,22,6.3,6.3,84,0.00,,---,0.00,VWS V14.01,2013-08-25 18:25:00,
2013-08-25 13:30:00,94.5,88.5,30.15,NNE,22,7.8,7.8,83,0.00,,---,0.00,VWS V14.01,2013-08-25 18:30:00,
2013-08-25 13:35:00,94.3,89.1,30.15,North,0,7.6,7.6,85,0.00,,---,0.00,VWS V14.01,2013-08-25 18:35:00,
2013-08-25 13:40:00,93.9,88.7,30.15,NNE,22,6.7,7.6,85,0.00,,---,0.00,VWS V14.01,2013-08-25 18:40:00,
2013-08-25 13:45:00,94.1,88.9,30.15,NNE,22,6.3,6.3,85,0.00,,---,0.00,VWS V14.01,2013-08-25 18:45:00,
2013-08-25 13:50:00,94.5,89.2,30.15,NE,45,5.4,5.4,85,0.00,,---,0.00,VWS V14.01,2013-08-25 18:50:00,
2013-08-25 13:55:00,94.8,89.6,30.15,NE,45,6.3,6.3,85,0.00,,---,0.00,VWS V14.01,2013-08-25 18:55:00,
2013-08-25 14:00:00,94.5,89.2,30.15,NE,45,6.0,6.0,85,0.00,,---,0.00,VWS V14.01,2013-08-25 19:00:00,
2013-08-25 14:05:00,95.2,89.6,30.15,NNE,22,5.4,5.4,84,0.00,,---,0.00,VWS V14.01,2013-08-25 19:05:00,
2013-08-25 14:10:00,95.7,89.3,30.15,NNE,22,6.9,7.4,82,0.00,,---,0.00,VWS V14.01,2013-08-25 19:10:00,
2013-08-25 14:15:00,95.4,89.0,30.15,NE,45,7.2,7.2,82,0.00,,---,0.00,VWS V14.01,2013-08-25 19:15:00,
2013-08-25 14:20:00,95.0,88.6,30.12,NNE,22,6.0,6.0,82,0.00,,---,0.00,VWS V14.01,2013-08-25 19:20:00,
2013-08-25 14:25:00,95.4,89.4,30.12,NE,45,3.1,3.1,83,0.00,,---,0.00,VWS V14.01,2013-08-25 19:25:00,
2013-08-25 14:30:00,95.9,89.5,30.12,North,0,3.8,5.8,82,0.00,,---,0.00,VWS V14.01,2013-08-25 19:30:00,
2013-08-25 14:35:00,96.1,89.3,30.12,NE,45,6.3,6.3,81,0.00,,---,0.00,VWS V14.01,2013-08-25 19:35:00,
2013-08-25 14:40:00,95.2,88.4,30.12,NE,45,4.0,6.5,81,0.00,,---,0.00,VWS V14.01,2013-08-25 19:40:00,
2013-08-25 14:45:00,95.0,88.2,30.12,NNE,22,6.0,6.3,81,0.00,,---,0.00,VWS V14.01,2013-08-25 19:45:00,
2013-08-25 14:50:00,94.8,88.8,30.12,NE,45,5.8,5.8,83,0.00,,---,0.00,VWS V14.01,2013-08-25 19:50:00,
2013-08-25 14:55:00,95.2,89.2,30.12,East,90,4.0,4.0,83,0.00,,---,0.00,VWS V14.01,2013-08-25 19:55:00,
2013-08-25 15:00:00,96.4,90.0,30.12,NE,45,5.6,5.6,82,0.00,,---,0.00,VWS V14.01,2013-08-25 20:00:00,
2013-08-25 15:05:00,96.8,89.6,30.12,NE,45,2.0,2.0,80,0.00,,---,0.00,VWS V14.01,2013-08-25 20:05:00,
2013-08-25 15:10:00,95.5,88.4,30.12,ESE,112,7.6,7.6,80,0.00,,---,0.00,VWS V14.01,2013-08-25 20:10:00,
2013-08-25 15:15:00,95.4,88.2,30.12,NE,45,3.1,3.1,80,0.00,,---,0.00,VWS V14.01,2013-08-25 20:15:00,
2013-08-25 15:20:00,94.8,88.8,30.09,NE,45,4.0,6.3,83,0.00,,---,0.00,VWS V14.01,2013-08-25 20:20:00,
2013-08-25 15:25:00,95.2,89.2,30.09,ENE,68,5.4,5.4,83,0.00,,---,0.00,VWS V14.01,2013-08-25 20:25:00,
2013-08-25 15:30:00,93.9,88.3,30.09,NNE,22,5.8,5.8,84,0.00,,---,0.00,VWS V14.01,2013-08-25 20:30:00,
2013-08-25 15:35:00,93.0,87.8,30.12,North,0,8.7,8.7,85,0.00,,---,0.00,VWS V14.01,2013-08-25 20:35:00,
2013-08-25 15:40:00,92.1,87.3,30.12,ESE,112,3.6,3.6,86,0.00,,---,0.00,VWS V14.01,2013-08-25 20:40:00,
2013-08-25 15:45:00,92.8,88.4,30.12,NNE,22,6.0,6.0,87,0.00,,---,0.00,VWS V14.01,2013-08-25 20:45:00,
2013-08-25 15:50:00,93.2,88.0,30.09,NNE,22,8.7,8.7,85,0.00,,---,0.00,VWS V14.01,2013-08-25 20:50:00,
2013-08-25 15:55:00,93.7,88.6,30.09,NE,45,8.5,8.5,85,0.00,,---,0.00,VWS V14.01,2013-08-25 20:55:00,
2013-08-25 16:00:00,93.4,88.6,30.09,ENE,68,3.4,6.0,86,0.00,,---,0.00,VWS V14.01,2013-08-25 21:00:00,
2013-08-25 16:05:00,92.8,88.0,30.09,NE,45,6.0,6.0,86,0.00,,---,0.00,VWS V14.01,2013-08-25 21:05:00,
2013-08-25 16:10:00,92.5,88.1,30.09,NE,45,8.1,8.1,87,0.00,,---,0.00,VWS V14.01,2013-08-25 21:10:00,
2013-08-25 16:15:00,92.3,87.9,30.09,NNE,22,7.6,7.8,87,0.00,,---,0.00,VWS V14.01,2013-08-25 21:15:00,
2013-08-25 16:20:00,91.9,87.5,30.09,ENE,68,7.4,10.5,87,0.00,,---,0.00,VWS V14.01,2013-08-25 21:20:00,
2013-08-25 16:25:00,91.9,87.5,30.09,NE,45,5.8,6.3,87,0.00,,---,0.00,VWS V14.01,2013-08-25 21:25:00,
2013-08-25 16:30:00,91.8,87.3,30.09,NNE,22,7.6,8.7,87,0.00,,---,0.00,VWS V14.01,2013-08-25 21:30:00,
2013-08-25 16:35:00,91.8,87.7,30.09,NE,45,8.5,8.5,88,0.00,,---,0.00,VWS V14.01,2013-08-25 21:35:00,
2013-08-25 16:40:00,91.8,87.7,30.09,NNE,22,6.0,6.0,88,0.00,,---,0.00,VWS V14.01,2013-08-25 21:40:00,
2013-08-25 16:45:00,91.4,87.3,30.09,NNE,22,8.5,8.5,88,0.00,,---,0.00,VWS V14.01,2013-08-25 21:45:00,
2013-08-25 16:50:00,91.2,87.5,30.06,NE,45,8.1,8.1,89,0.00,,---,0.00,VWS V14.01,2013-08-25 21:50:00,
2013-08-25 16:55:00,90.9,86.8,30.06,NNE,22,9.6,9.6,88,0.00,,---,0.00,VWS V14.01,2013-08-25 21:55:00,
2013-08-25 17:00:00,91.0,87.3,30.06,NE,45,8.1,8.1,89,0.00,,---,0.00,VWS V14.01,2013-08-25 22:00:00,
2013-08-25 17:05:00,90.7,87.0,30.09,NNE,22,6.5,6.5,89,0.00,,---,0.00,VWS V14.01,2013-08-25 22:05:00,
2013-08-25 17:10:00,90.9,87.2,30.09,NNE,22,8.5,8.5,89,0.00,,---,0.00,VWS V14.01,2013-08-25 22:10:00,
2013-08-25 17:15:00,90.3,87.0,30.09,NE,45,7.4,7.4,90,0.00,,---,0.00,VWS V14.01,2013-08-25 22:15:00,
2013-08-25 17:20:00,90.1,86.8,30.09,NE,45,7.4,7.4,90,0.00,,---,0.00,VWS V14.01,2013-08-25 22:20:00,
2013-08-25 17:25:00,90.0,86.6,30.09,NNE,22,6.3,6.3,90,0.00,,---,0.00,VWS V14.01,2013-08-25 22:25:00,
2013-08-25 17:30:00,89.6,86.3,30.09,NNE,22,10.3,10.3,90,0.00,,---,0.00,VWS V14.01,2013-08-25 22:30:00,
2013-08-25 17:35:00,89.1,86.1,30.09,North,0,6.0,6.0,91,0.00,,---,0.00,VWS V14.01,2013-08-25 22:35:00,
2013-08-25 17:40:00,88.9,85.9,30.09,NE,45,7.4,7.4,91,0.00,,---,0.00,VWS V14.01,2013-08-25 22:40:00,
2013-08-25 17:45:00,88.7,85.7,30.09,NE,45,10.1,10.1,91,0.00,,---,0.00,VWS V14.01,2013-08-25 22:45:00,
2013-08-25 17:50:00,88.7,85.7,30.09,NE,45,3.6,3.6,91,0.00,,---,0.00,VWS V14.01,2013-08-25 22:50:00,
2013-08-25 17:55:00,88.7,86.1,30.09,NE,45,3.1,3.1,92,0.00,,---,0.00,VWS V14.01,2013-08-25 22:55:00,
2013-08-25 18:00:00,88.7,85.7,30.09,ENE,68,2.2,3.1,91,0.00,,---,0.00,VWS V14.01,2013-08-25 23:00:00,
2013-08-25 18:05:00,88.3,85.4,30.12,NE,45,2.9,2.9,91,0.00,,---,0.00,VWS V14.01,2013-08-25 23:05:00,
2013-08-25 18:10:00,88.2,85.2,30.12,NNE,22,4.3,4.3,91,0.00,,---,0.00,VWS V14.01,2013-08-25 23:10:00,
2013-08-25 18:15:00,88.2,85.2,30.12,North,0,3.6,3.6,91,0.00,,---,0.00,VWS V14.01,2013-08-25 23:15:00,
2013-08-25 18:20:00,88.2,85.2,30.12,NNE,22,9.0,9.0,91,0.00,,---,0.00,VWS V14.01,2013-08-25 23:20:00,
2013-08-25 18:25:00,88.2,85.2,30.12,NNE,22,8.1,9.8,91,0.00,,---,0.00,VWS V14.01,2013-08-25 23:25:00,
2013-08-25 18:30:00,86.5,84.6,30.12,NNE,22,7.8,7.8,94,0.00,,---,0.00,VWS V14.01,2013-08-25 23:30:00,
2013-08-25 18:35:00,86.2,84.2,30.12,ENE,68,7.4,7.4,94,0.00,,---,0.00,VWS V14.01,2013-08-25 23:35:00,
2013-08-25 18:40:00,85.6,83.7,30.12,NE,45,3.8,3.8,94,0.00,,---,0.00,VWS V14.01,2013-08-25 23:40:00,
2013-08-25 18:45:00,85.6,83.7,30.12,SSE,158,5.8,7.2,94,0.00,,---,0.00,VWS V14.01,2013-08-25 23:45:00,
2013-08-25 18:50:00,85.5,83.9,30.12,East,90,8.1,8.1,95,0.00,,---,0.00,VWS V14.01,2013-08-25 23:50:00,
2013-08-25 18:55:00,85.3,83.7,30.12,NE,45,3.8,3.8,95,0.00,,---,0.00,VWS V14.01,2013-08-25 23:55:00,
2013-08-25 19:00:00,85.1,83.5,30.12,NNE,22,4.7,4.7,95,0.00,,---,0.00,VWS V14.01,2013-08-26 00:00:00,
2013-08-25 19:05:00,84.9,83.3,30.15,NE,45,3.4,3.4,95,0.00,,---,0.00,VWS V14.01,2013-08-26 00:05:00,
2013-08-25 19:10:00,84.9,83.3,30.15,NE,45,5.8,5.8,95,0.00,,---,0.00,VWS V14.01,2013-08-26 00:10:00,
2013-08-25 19:15:00,84.7,83.2,30.15,NE,45,1.6,1.6,95,0.00,,---,0.00,VWS V14.01,2013-08-26 00:15:00,
2013-08-25 19:20:00,84.6,83.0,30.15,NE,45,4.7,4.7,95,0.00,,---,0.00,VWS V14.01,2013-08-26 00:20:00,
2013-08-25 19:25:00,84.4,82.8,30.15,NE,45,7.4,7.4,95,0.00,,---,0.00,VWS V14.01,2013-08-26 00:25:00,
2013-08-25 19:30:00,84.4,82.8,30.15,East,90,6.0,6.0,95,0.00,,---,0.00,VWS V14.01,2013-08-26 00:30:00,
2013-08-25 19:35:00,84.6,83.0,30.15,NNE,22,1.1,1.1,95,0.00,,---,0.00,VWS V14.01,2013-08-26 00:35:00,
2013-08-25 19:40:00,84.4,82.8,30.15,ESE,112,2.7,2.7,95,0.00,,---,0.00,VWS V14.01,2013-08-26 00:40:00,
2013-08-25 19:45:00,84.2,82.6,30.15,East,90,1.1,1.1,95,0.00,,---,0.00,VWS V14.01,2013-08-26 00:45:00,
2013-08-25 19:50:00,84.4,82.8,30.15,NNE,22,2.5,2.5,95,0.00,,---,0.00,VWS V14.01,2013-08-26 00:50:00,
2013-08-25 19:55:00,84.4,82.8,30.15,NE,45,3.1,7.8,95,0.00,,---,0.00,VWS V14.01,2013-08-26 00:55:00,
2013-08-25 20:00:00,84.2,82.6,30.15,North,0,1.1,1.1,95,0.00,,---,0.00,VWS V14.01,2013-08-26 01:00:00,
2013-08-25 20:05:00,84.4,82.8,30.15,NE,45,0.0,0.0,95,0.00,,---,0.00,VWS V14.01,2013-08-26 01:05:00,
2013-08-25 20:10:00,84.0,82.4,30.15,NNE,22,0.0,0.0,95,0.00,,---,0.00,VWS V14.01,2013-08-26 01:10:00,
2013-08-25 20:15:00,84.0,82.4,30.15,NNE,22,0.0,0.0,95,0.00,,---,0.00,VWS V14.01,2013-08-26 01:15:00,
2013-08-25 20:20:00,83.8,82.3,30.15,ESE,112,1.6,1.6,95,0.00,,---,0.00,VWS V14.01,2013-08-26 01:20:00,
2013-08-25 20:25:00,84.0,82.4,30.15,East,90,2.7,2.7,95,0.00,,---,0.00,VWS V14.01,2013-08-26 01:25:00,
2013-08-25 20:30:00,84.0,82.4,30.15,ENE,68,0.0,0.0,95,0.00,,---,0.00,VWS V14.01,2013-08-26 01:30:00,
2013-08-25 20:35:00,84.0,82.4,30.15,NE,45,2.2,2.2,95,0.00,,---,0.00,VWS V14.01,2013-08-26 01:35:00,
2013-08-25 20:40:00,84.0,82.4,30.15,ENE,68,0.9,0.9,95,0.00,,---,0.00,VWS V14.01,2013-08-26 01:40:00,
2013-08-25 20:45:00,84.0,82.4,30.15,South,180,2.2,2.2,95,0.00,,---,0.00,VWS V14.01,2013-08-26 01:45:00,
2013-08-25 20:50:00,83.7,82.1,30.15,South,180,2.2,2.2,95,0.00,,---,0.00,VWS V14.01,2013-08-26 01:50:00,
2013-08-25 20:55:00,83.7,82.1,30.15,South,180,2.2,2.2,95,0.00,,---,0.00,VWS V14.01,2013-08-26 01:55:00,
2013-08-25 21:00:00,83.5,81.9,30.15,South,180,2.2,2.2,95,0.00,,---,0.00,VWS V14.01,2013-08-26 02:00:00,
2013-08-25 21:05:00,83.3,81.7,30.15,South,180,2.2,2.2,95,0.00,,---,0.00,VWS V14.01,2013-08-26 02:05:00,
2013-08-25 21:10:00,83.1,81.5,30.15,South,180,2.2,2.2,95,0.00,,---,0.00,VWS V14.01,2013-08-26 02:10:00,
2013-08-25 21:15:00,83.3,81.7,30.15,South,180,2.2,2.2,95,0.00,,---,0.00,VWS V14.01,2013-08-26 02:15:00,
2013-08-25 21:20:00,83.5,82.2,30.15,East,90,2.5,3.1,96,0.00,,---,0.00,VWS V14.01,2013-08-26 02:20:00,
2013-08-25 21:25:00,83.5,82.2,30.15,East,90,2.5,2.5,96,0.00,,---,0.00,VWS V14.01,2013-08-26 02:25:00,
2013-08-25 21:30:00,83.7,82.4,30.15,East,90,2.5,2.5,96,0.00,,---,0.00,VWS V14.01,2013-08-26 02:30:00,
2013-08-25 21:35:00,83.8,82.6,30.15,East,90,2.5,2.5,96,0.00,,---,0.00,VWS V14.01,2013-08-26 02:35:00,
2013-08-25 21:40:00,83.5,81.9,30.15,SE,135,0.9,2.5,95,0.00,,---,0.00,VWS V14.01,2013-08-26 02:40:00,
2013-08-25 21:45:00,83.5,81.9,30.15,ENE,68,3.8,3.8,95,0.00,,---,0.00,VWS V14.01,2013-08-26 02:45:00,
2013-08-25 21:50:00,83.7,82.4,30.15,East,90,3.6,3.6,96,0.00,,---,0.00,VWS V14.01,2013-08-26 02:50:00,
2013-08-25 21:55:00,83.8,82.6,30.15,NE,45,1.6,1.6,96,0.00,,---,0.00,VWS V14.01,2013-08-26 02:55:00,
2013-08-25 22:00:00,84.0,82.8,30.15,NNE,22,5.8,5.8,96,0.00,,---,0.00,VWS V14.01,2013-08-26 03:00:00,
2013-08-25 22:05:00,84.2,82.9,30.15,NNE,22,7.6,8.5,96,0.00,,---,0.00,VWS V14.01,2013-08-26 03:05:00,
2013-08-25 22:10:00,84.2,82.9,30.15,North,0,7.8,7.8,96,0.00,,---,0.00,VWS V14.01,2013-08-26 03:10:00,
2013-08-25 22:15:00,84.2,82.9,30.15,NE,45,6.5,7.4,96,0.00,,---,0.00,VWS V14.01,2013-08-26 03:15:00,
2013-08-25 22:20:00,84.2,82.6,30.12,NE,45,7.8,8.1,95,0.00,,---,0.00,VWS V14.01,2013-08-26 03:20:00,
2013-08-25 22:25:00,84.0,82.8,30.12,NNE,22,5.8,5.8,96,0.00,,---,0.00,VWS V14.01,2013-08-26 03:25:00,
2013-08-25 22:30:00,84.2,82.6,30.12,East,90,4.7,6.0,95,0.00,,---,0.00,VWS V14.01,2013-08-26 03:30:00,
2013-08-25 22:35:00,84.0,82.8,30.15,NNE,22,2.0,3.1,96,0.00,,---,0.00,VWS V14.01,2013-08-26 03:35:00,
2013-08-25 22:40:00,84.0,82.8,30.15,ENE,68,8.1,8.1,96,0.00,,---,0.00,VWS V14.01,2013-08-26 03:40:00,
2013-08-25 22:45:00,84.0,82.8,30.15,NNE,22,4.0,4.3,96,0.00,,---,0.00,VWS V14.01,2013-08-26 03:45:00,
2013-08-25 22:50:00,83.8,82.6,30.15,East,90,3.1,3.1,96,0.00,,---,0.00,VWS V14.01,2013-08-26 03:50:00,
2013-08-25 22:55:00,83.7,82.4,30.15,SE,135,1.3,1.3,96,0.00,,---,0.00,VWS V14.01,2013-08-26 03:55:00,
2013-08-25 23:00:00,83.5,82.2,30.15,North,0,3.6,3.6,96,0.00,,---,0.00,VWS V14.01,2013-08-26 04:00:00,
2013-08-25 23:01:00,83.5,82.2,30.15,East,90,5.8,5.8,96,0.00,,---,0.00,VWS V14.01,2013-08-26 04:01:00,
2013-08-25 23:06:00,83.5,82.2,30.15,NE,45,5.8,5.8,96,0.00,,---,0.00,VWS V14.01,2013-08-26 04:06:00,
2013-08-25 23:11:00,83.3,82.0,30.15,East,90,1.3,1.3,96,0.00,,---,0.00,VWS V14.01,2013-08-26 04:11:00,
2013-08-25 23:16:00,83.1,81.9,30.15,NE,45,0.9,0.9,96,0.00,,---,0.00,VWS V14.01,2013-08-26 04:16:00,
2013-08-25 23:21:00,83.3,82.0,30.15,SE,135,0.9,0.9,96,0.00,,---,0.00,VWS V14.01,2013-08-26 04:21:00,
2013-08-25 23:26:00,83.1,81.9,30.15,East,90,0.0,0.0,96,0.00,,---,0.00,VWS V14.01,2013-08-26 04:26:00,
2013-08-25 23:31:00,83.1,81.9,30.15,NE,45,2.7,3.8,96,0.00,,---,0.00,VWS V14.01,2013-08-26 04:31:00,
2013-08-25 23:36:00,83.1,81.9,30.15,North,0,3.4,3.4,96,0.00,,---,0.00,VWS V14.01,2013-08-26 04:36:00,
2013-08-25 23:41:00,83.1,81.9,30.15,NNW,338,1.6,1.6,96,0.00,,---,0.00,VWS V14.01,2013-08-26 04:41:00,
2013-08-25 23:46:00,82.9,81.7,30.15,ESE,112,2.0,2.0,96,0.00,,---,0.00,VWS V14.01,2013-08-26 04:46:00,
2013-08-25 23:51:00,82.9,81.7,30.15,NE,45,1.1,1.1,96,0.00,,---,0.00,VWS V14.01,2013-08-26 04:51:00,
2013-08-25 23:56:00,82.9,81.7,30.15,SE,135,0.9,1.1,96,0.00,,---,0.00,VWS V14.01,2013-08-26 04:56:00,